EW1390 Weather Reports


time (UTC)temp
C
wind
direction
speed
KPH
gust
KPH
rain 1hr
cm
rain 24hr
cm
rain mn
cm
humidity
%
barometer
mb
20260831210039 27 275 0.0 14.5 0.00 0.00 0.00 33 1004.4
20260831204540 27 310 0.0 11.3 0.00 0.00 0.00 34 1004.4
20260831203041 27 24 1.6 11.3 0.00 0.00 0.00 33 1004.5
20260831201537 27 215 1.6 12.9 0.00 0.00 0.00 35 1004.5
20260831200036 27 223 1.6 14.5 0.00 0.00 0.00 35 1004.6
20260831194550 27 209 1.6 12.9 0.00 0.00 0.00 35 1004.8
20260831193047 27 257 3.2 11.3 0.00 0.00 0.00 34 1004.7
20260831191544 27 286 3.2 11.3 0.00 0.00 0.00 34 1004.7
20260831190030 27 104 1.6 8.0 0.00 0.00 0.00 34 1004.7
20260831184529 27 221 1.6 8.0 0.00 0.00 0.00 34 1004.7
20260831183029 27 221 0.0 6.4 0.00 0.00 0.00 35 1004.7
20260831181525 26 113 1.6 8.0 0.00 0.00 0.00 36 1004.8
20260831180021 26 211 0.0 4.8 0.00 0.00 0.00 38 1004.7
20260831174518 26 213 1.6 8.0 0.00 0.00 0.00 38 1004.6
20260831173016 25 148 0.0 6.4 0.00 0.00 0.00 40 1004.6
20260831171509 24 169 0.0 3.2 0.00 0.00 0.00 43 1004.4
20260831170005 22 173 0.0 4.8 0.00 0.00 0.00 48 1004.3
20260831164502 21 238 0.0 6.4 0.00 0.00 0.00 55 1004.3
20260831163057 17 263 0.0 4.8 0.00 0.00 0.00 72 1004.3
20260831161551 16 263 0.0 0.0 0.00 0.00 0.00 81 1004.2
20260831160048 15 263 0.0 0.0 0.00 0.00 0.00 82 1004.2
20260831154613 13 263 0.0 0.0 0.00 0.00 0.00 83 1004.2
20260831153045 13 263 0.0 0.0 0.00 0.00 0.00 82 1004.3
20260831151559 12 263 0.0 0.0 0.00 0.00 0.00 82 1004.2
20260831150042 12 263 0.0 0.0 0.00 0.00 0.00 82 1004.1
20260831144541 11 263 0.0 0.0 0.00 0.00 0.00 81 1004.0
20260831143041 11 263 0.0 0.0 0.00 0.00 0.00 81 1003.9
20260831141541 11 263 0.0 0.0 0.00 0.00 0.00 81 1003.8
20260831140041 11 263 0.0 0.0 0.00 0.00 0.00 80 1003.9
20260831134546 11 263 0.0 0.0 0.00 0.00 0.00 80 1003.8
20260831133040 11 263 0.0 0.0 0.00 0.00 0.00 80 1003.8
20260831131542 11 263 0.0 0.0 0.00 0.00 0.00 80 1003.7
20260831130043 11 263 0.0 0.0 0.00 0.00 0.00 79 1003.6
20260831124546 11 263 0.0 0.0 0.00 0.00 0.00 79 1003.6
20260831123035 11 263 0.0 0.0 0.00 0.00 0.00 78 1003.7
20260831121543 11 263 0.0 0.0 0.00 0.00 0.00 78 1003.7
20260831120037 11 263 0.0 0.0 0.00 0.00 0.00 77 1003.7
20260831114533 11 263 0.0 1.6 0.00 0.00 0.00 77 1003.7
20260831113030 12 263 0.0 0.0 0.00 0.00 0.00 77 1003.8
20260831111528 12 263 0.0 0.0 0.00 0.00 0.00 76 1003.7
20260831110027 12 263 0.0 3.2 0.00 0.00 0.00 76 1003.8
20260831104529 12 263 0.0 0.0 0.00 0.00 0.00 76 1003.7
20260831103031 12 263 0.0 0.0 0.00 0.00 0.00 75 1003.6
20260831101526 12 263 0.0 0.0 0.00 0.00 0.00 74 1003.6
20260831100025 12 263 0.0 0.0 0.00 0.00 0.00 74 1003.6
20260831094524 12 263 0.0 0.0 0.00 0.00 0.00 73 1003.6
20260831093035 12 263 0.0 0.0 0.00 0.00 0.00 72 1003.5
20260831091518 12 263 0.0 0.0 0.00 0.00 0.00 72 1003.6
20260831090016 12 263 0.0 0.0 0.00 0.00 0.00 71 1003.6
20260831084514 13 263 0.0 0.0 0.00 0.00 0.00 70 1003.6
20260831083013 13 263 0.0 0.0 0.00 0.00 0.00 69 1003.7
20260831081510 13 263 0.0 0.0 0.00 0.00 0.00 68 1003.8
20260831080007 13 263 0.0 0.0 0.00 0.00 0.00 67 1004.0
20260831074506 13 263 0.0 0.0 0.00 0.00 0.00 67 1004.0
20260831073006 14 263 0.0 0.0 0.00 0.00 0.00 66 1004.0
20260831071502 14 263 0.0 0.0 0.00 0.00 0.00 66 1004.0
20260831070059 14 263 0.0 0.0 0.00 0.00 0.00 65 1004.1
20260831064613 15 263 0.0 0.0 0.00 0.00 0.00 65 1004.3
20260831063105 15 263 0.0 0.0 0.00 0.00 0.00 64 1004.2
20260831061559 15 263 0.0 0.0 0.00 0.00 0.00 63 1004.2
20260831060105 15 263 0.0 0.0 0.00 0.00 0.00 62 1004.3
20260831054556 16 263 0.0 0.0 0.00 0.00 0.00 61 1004.4
20260831053056 16 263 0.0 0.0 0.00 0.00 0.00 60 1004.4
20260831051604 16 263 0.0 0.0 0.00 0.00 0.00 58 1004.4
20260831050055 16 263 0.0 0.0 0.00 0.00 0.00 57 1004.4
20260831044554 17 263 0.0 0.0 0.00 0.00 0.00 57 1004.5
20260831043054 17 263 0.0 0.0 0.00 0.00 0.00 55 1004.4
20260831041552 18 263 0.0 0.0 0.00 0.00 0.00 54 1004.2
20260831040051 18 263 0.0 0.0 0.00 0.00 0.00 53 1004.1
20260831034551 19 263 0.0 0.0 0.00 0.00 0.00 51 1003.9
20260831033054 20 263 0.0 0.0 0.00 0.00 0.00 51 1003.7
20260831031549 20 263 0.0 0.0 0.00 0.00 0.00 51 1003.7
20260831030050 21 263 0.0 1.6 0.00 0.00 0.00 50 1003.6
20260831024556 22 263 0.0 0.0 0.00 0.00 0.00 48 1003.5
20260831023056 23 263 0.0 3.2 0.00 0.00 0.00 45 1003.4
20260831021547 24 263 0.0 3.2 0.00 0.00 0.00 43 1003.4
20260831020108 25 263 0.0 0.0 0.00 0.00 0.00 40 1003.5
20260831014546 26 263 0.0 1.6 0.00 0.00 0.00 38 1003.5
20260831013045 27 263 0.0 3.2 0.00 0.00 0.00 35 1003.5
20260831011556 28 263 0.0 0.0 0.00 0.00 0.00 33 1003.5
20260831010045 28 263 0.0 6.4 0.00 0.00 0.00 29 1003.5
20260831004548 30 263 0.0 3.2 0.00 0.00 0.00 30 1003.6
20260831003042 29 263 0.0 4.8 0.00 0.00 0.00 30 1003.6
20260831001542 30 223 3.2 6.4 0.00 0.00 0.00 28 1003.6
20260831000041 30 214 0.0 8.0 0.00 0.00 0.00 28 1003.6
20260830234639 30 38 0.0 6.4 0.00 0.00 0.00 28 1003.7
20260830233040 30 195 0.0 6.4 0.00 0.00 0.00 29 1003.9
20260830231537 30 190 0.0 6.4 0.00 0.00 0.00 29 1003.9
20260830230033 30 225 1.6 9.7 0.00 0.00 0.00 29 1004.0
20260830224535 30 175 0.0 4.8 0.00 0.00 0.00 29 1004.1
20260830223031 30 292 0.0 8.0 0.00 0.00 0.00 29 1004.2
20260830221529 30 107 0.0 6.4 0.00 0.00 0.00 28 1004.4
20260830220025 30 107 0.0 8.0 0.00 0.00 0.00 29 1004.5
20260830214523 30 221 3.2 9.7 0.00 0.00 0.00 28 1004.8
20260830213035 30 229 0.0 11.3 0.00 0.00 0.00 29 1004.9
20260830211534 30 277 1.6 11.3 0.00 0.00 0.00 29 1005.1